Lexington, NC

2:37 PM EDT on August 26, 2016 (GMT -0400)
Davidson County

Weather History for KEXX - March, 2013

Change the Weather History Date:

Tuesday, March 5, 2013

  Actual Average (KINT) Record (KINT)
Temperature  
Mean Temperature 40 °F -  
Max Temperature 45 °F 54 °F 83 °F (1976)
Min Temperature 34 °F 35 °F 7 °F (1978)
Degree Days  
Heating Degree Days 26    
Moisture  
Dew Point 35 °F    
Average Humidity 81    
Maximum Humidity 100    
Minimum Humidity 51    
Precipitation  
Precipitation 0.21 in - - ()
Sea Level Pressure  
Sea Level Pressure 29.88 in    
Wind  
Wind Speed 1 mph (East)    
Max Wind Speed 12 mph    
Max Gust Speed 18 mph    
Visibility 8 miles    
Events Rain    
Averages and records for this station are not official NWS values.
T = Trace of Precipitation, MM = Missing Value Source: NWS Daily Summary

Daily Weather History Graph

Daily Weather History Graph

Search for Another Location

Airport or City:

Trip Planner

Search our weather history database for the weather conditions in past years. The results will help you decide how hot, cold, wet, or windy it might be!

Date:

Astronomy

Mar. 05, 2013 Rise Set
Actual Time 6:45 AM EST 6:20 PM EST
Civil Twilight 6:20 AM EST 6:45 PM EST
Nautical Twilight 5:50 AM EST 7:15 PM EST
Astronomical Twilight 5:20 AM EST 7:45 PM EST
Moon 1:47 AM EST (3/5) 12:06 PM EST (3/5)
Length of Visible Light 12h 25m
Length of Day
11h 34m
Last Quarter, 41% of the Moon is Illuminated
Mar 5
Last Quarter
Mar 11
New
Mar 19
First Quarter
Mar 27
Full
Apr 3
Last Quarter

Hourly Weather History & Observations

Time (EST) Temp. Windchill Dew Point Humidity Pressure Visibility Wind Dir Wind Speed Gust Speed Precip Events Conditions
12:15 AM 38.7 °F - 21.9 °F 51% 30.04 in 10.0 mi Calm Calm - N/A   Clear
12:35 AM 38.5 °F - 21.9 °F 51% 30.04 in 10.0 mi Calm Calm - N/A   Clear
12:55 AM 38.5 °F - 23.7 °F 55% 30.03 in 10.0 mi Calm Calm - N/A   Clear
1:15 AM 39.2 °F - 23.4 °F 53% 30.04 in 10.0 mi Calm Calm - N/A   Clear
1:35 AM 38.7 °F - 23.5 °F 55% 30.05 in 10.0 mi Calm Calm - N/A   Clear
1:55 AM 39.2 °F - 23.2 °F 53% 30.06 in 10.0 mi Calm Calm - N/A   Clear
2:15 AM 39.6 °F - 24.6 °F 55% 30.05 in 10.0 mi Calm Calm - N/A   Clear
2:35 AM 39.6 °F - 25.9 °F 58% 30.05 in 10.0 mi Calm Calm - N/A   Clear
2:55 AM 38.7 °F - 26.1 °F 61% 30.04 in 10.0 mi Calm Calm - N/A   Clear
3:15 AM 37.6 °F - 24.8 °F 60% 30.04 in 10.0 mi Calm Calm - N/A   Clear
3:35 AM 36.0 °F - 26.1 °F 67% 30.03 in 10.0 mi Calm Calm - N/A   Clear
3:55 AM 36.3 °F - 25.0 °F 63% 30.03 in 10.0 mi Calm Calm - N/A   Clear
4:15 AM 36.1 °F - 26.8 °F 69% 30.03 in 10.0 mi Calm Calm - N/A   Clear
4:35 AM 37.4 °F - 23.7 °F 58% 30.03 in 10.0 mi Calm Calm - N/A   Clear
4:55 AM 34.5 °F - 27.5 °F 76% 30.02 in 10.0 mi Calm Calm - N/A   Clear
5:15 AM 36.1 °F - 24.4 °F 63% 30.02 in 10.0 mi Calm Calm - N/A   Clear
5:35 AM 36.1 °F - 24.6 °F 63% 30.03 in 10.0 mi Calm Calm - N/A   Clear
5:55 AM 34.7 °F - 28.4 °F 78% 30.02 in 10.0 mi Calm Calm - N/A   Clear
6:15 AM 34.7 °F - 28.8 °F 79% 30.01 in 10.0 mi Calm Calm - N/A   Clear
6:35 AM 34.7 °F - 28.4 °F 78% 30.01 in 10.0 mi Calm Calm - N/A   Clear
6:55 AM 34.7 °F - 28.6 °F 78% 30.01 in 10.0 mi Calm Calm - N/A   Clear
7:15 AM 35.6 °F - 28.2 °F 75% 30.01 in 10.0 mi Calm Calm - N/A   Clear
7:35 AM 37.0 °F - 28.0 °F 70% 30.01 in 10.0 mi Calm Calm - N/A   Clear
8:35 AM 39.9 °F - 30.0 °F 68% 30.01 in 10.0 mi Calm Calm - N/A   Mostly Cloudy
8:55 AM 40.3 °F - 31.1 °F 70% 30.01 in 10.0 mi Calm Calm - N/A   Overcast
9:15 AM 40.5 °F - 28.2 °F 62% 30.01 in 10.0 mi Calm Calm - N/A   Overcast
9:35 AM 41.0 °F - 29.8 °F 64% 30.01 in 10.0 mi Calm Calm - N/A   Overcast
9:55 AM 41.9 °F 40.0 °F 29.8 °F 62% 30.00 in 10.0 mi South 3.5 mph - N/A   Mostly Cloudy
10:15 AM 41.9 °F - 29.5 °F 61% 30.00 in 10.0 mi Calm Calm - N/A   Mostly Cloudy
10:35 AM 41.2 °F - 32.9 °F 72% 29.99 in 7.0 mi Calm Calm - N/A Rain Rain
10:55 AM 40.3 °F 38.2 °F 35.6 °F 83% 29.99 in 5.0 mi South 3.5 mph - N/A Rain Light Rain
11:15 AM 40.3 °F 38.2 °F 37.4 °F 89% 29.98 in 7.0 mi SSE 3.5 mph - N/A   Drizzle
11:35 AM 40.8 °F 38.8 °F 38.5 °F 91% 29.97 in 7.0 mi South 3.5 mph - 0.01 in   Light Drizzle
11:55 AM 41.0 °F 39.0 °F 38.5 °F 91% 29.96 in 5.0 mi SSE 3.5 mph - 0.01 in Rain Rain
12:15 PM 41.0 °F 39.0 °F 38.8 °F 92% 29.95 in 5.0 mi South 3.5 mph - N/A Rain Light Rain
12:35 PM 41.2 °F 39.2 °F 37.8 °F 88% 29.94 in 7.0 mi South 3.5 mph - N/A Rain Light Rain
12:55 PM 41.7 °F 39.8 °F 39.0 °F 90% 29.93 in 7.0 mi SSE 3.5 mph - N/A   Light Drizzle
1:15 PM 41.9 °F - 38.8 °F 89% 29.91 in 10.0 mi Calm Calm - N/A   Mostly Cloudy
1:35 PM 42.8 °F - 39.9 °F 90% 29.90 in 10.0 mi Calm Calm - N/A   Mostly Cloudy
1:55 PM 43.5 °F - 40.6 °F 90% 29.88 in 7.0 mi Calm Calm - N/A   Mostly Cloudy
2:15 PM 44.1 °F 41.5 °F 41.4 °F 90% 29.87 in 7.0 mi South 4.6 mph - N/A Rain Rain
2:35 PM 45.0 °F 41.8 °F 42.1 °F 90% 29.87 in 7.0 mi SSW 5.8 mph - N/A   Overcast
2:55 PM 45.3 °F 43.0 °F 41.9 °F 88% 29.87 in 7.0 mi South 4.6 mph - N/A Rain Light Rain
3:15 PM 45.0 °F 43.5 °F 41.9 °F 89% 29.86 in 7.0 mi South 3.5 mph - N/A   Overcast
3:35 PM 45.3 °F - 41.9 °F 88% 29.86 in 7.0 mi Calm Calm - N/A   Light Drizzle
3:55 PM 45.5 °F - 41.7 °F 87% 29.85 in 7.0 mi Calm Calm - N/A Rain Rain
4:15 PM 45.3 °F 44.0 °F 42.4 °F 90% 29.84 in 5.0 mi East 3.5 mph - N/A   Light Drizzle
4:35 PM 44.8 °F 41.6 °F 42.8 °F 93% 29.82 in 7.0 mi ENE 5.8 mph - N/A   Scattered Clouds
4:55 PM 45.1 °F 43.7 °F 43.0 °F 92% 29.81 in 7.0 mi ENE 3.5 mph - N/A   Clear
5:15 PM 45.5 °F 44.2 °F 42.6 °F 90% 29.79 in 7.0 mi NE 3.5 mph - N/A   Scattered Clouds
5:35 PM 45.1 °F 42.8 °F 42.1 °F 89% 29.79 in 7.0 mi ENE 4.6 mph - N/A   Mostly Cloudy
5:55 PM 44.8 °F 41.6 °F 42.1 °F 90% 29.76 in 7.0 mi ENE 5.8 mph - N/A   Scattered Clouds
6:15 PM 44.6 °F 40.7 °F 42.3 °F 91% 29.75 in 10.0 mi East 6.9 mph - N/A   Clear
6:35 PM 44.1 °F 38.1 °F 41.9 °F 92% 29.71 in 7.0 mi East 11.5 mph 16.1 mph N/A   Clear
6:55 PM 43.7 °F 38.6 °F 41.9 °F 93% 29.70 in 7.0 mi East 9.2 mph - N/A   Clear
7:15 PM 43.7 °F 38.6 °F 41.9 °F 93% 29.68 in 7.0 mi ENE 9.2 mph - N/A   Light Drizzle
7:35 PM 43.3 °F 39.2 °F 43.3 °F 100% 29.66 in 7.0 mi ENE 6.9 mph - N/A   Light Drizzle
7:55 PM 43.2 °F 39.7 °F 43.2 °F 100% 29.66 in 4.0 mi East 5.8 mph - 0.02 in Rain Rain
8:15 PM 43.2 °F - 43.2 °F 100% 29.64 in 3.0 mi Calm Calm - 0.02 in Rain Rain
8:35 PM 43.0 °F 39.5 °F 43.0 °F 100% 29.65 in 1.2 mi NNE 5.8 mph 18.4 mph 0.09 in   Unknown
8:55 PM 42.4 °F 38.8 °F 42.4 °F 100% 29.66 in 1.2 mi North 5.8 mph - 0.18 in   Mostly Cloudy
9:15 PM 42.3 °F 37.9 °F 42.3 °F 100% 29.62 in 5.0 mi NE 6.9 mph - N/A Rain Light Rain
9:35 PM 42.1 °F - 42.1 °F 100% 29.62 in 4.0 mi Calm Calm - N/A   Mostly Cloudy
9:55 PM 42.1 °F 40.2 °F 42.1 °F 100% 29.64 in 3.0 mi WNW 3.5 mph - N/A   Mostly Cloudy
10:15 PM 42.1 °F - 42.1 °F 100% 29.63 in 4.0 mi Calm Calm - N/A   Overcast
10:35 PM 41.9 °F 39.0 °F 41.9 °F 100% 29.61 in 5.0 mi North 4.6 mph - N/A   Overcast
10:55 PM 41.9 °F 38.2 °F 41.9 °F 100% 29.60 in 7.0 mi North 5.8 mph - N/A   Overcast
11:15 PM 41.9 °F 40.0 °F 41.9 °F 100% 29.59 in 7.0 mi North 3.5 mph - N/A   Overcast
11:35 PM 41.5 °F 39.6 °F 41.5 °F 100% 29.58 in 7.0 mi NNE 3.5 mph - N/A   Mostly Cloudy
11:55 PM 41.5 °F 39.6 °F 41.5 °F 100% 29.58 in 10.0 mi NNW 3.5 mph - N/A   Overcast